Location: Caltech
(34.1382°N, 118.1253°W)
Time: 14:10:09
(UTC-07:00)

Tiros 1 despin weight - All Passes

Search period start: 23 April 2018 00:00
Search period end: 03 May 2018 00:00
Orbit: 595 x 643 km, 48.2° (Epoch: 23 April)

Date Brightness Start Highest point End Pass type
(mag) Time Alt. Az. Time Alt. Az. Time Alt. Az.
23 Apr - 00:13:22 10° NNW 00:16:23 17° NNE 00:19:25 10° ENE visible
23 Apr - 01:54:17 10° NW 01:58:44 53° NNE 02:03:14 10° ESE night (unlit)
23 Apr - 03:36:22 10° WNW 03:40:06 25° SW 03:43:52 10° S night (unlit)
23 Apr - 17:41:47 10° SSE 17:44:32 16° SE 17:47:16 10° E daylight
23 Apr - 19:21:16 10° WSW 19:25:40 71° NW 19:30:05 10° NE daylight
23 Apr - 21:04:35 10° WNW 21:07:49 19° NNW 21:11:04 10° NNE visible
23 Apr - 22:48:35 10° NNW 22:50:47 13° N 22:52:59 10° NNE visible
24 Apr - 00:29:56 10° NNW 00:33:38 24° NNE 00:37:21 10° ENE visible
24 Apr - 02:11:01 10° NW 02:15:35 80° SW 02:20:11 10° SE night (unlit)
24 Apr - 03:55:15 10° WSW 03:56:36 11° SW 03:57:56 10° SW night (unlit)
24 Apr - 17:57:04 10° SSW 18:01:04 35° SE 18:05:06 10° ENE daylight
24 Apr - 19:38:28 10° W 19:42:35 38° NNW 19:46:45 10° NE daylight
24 Apr - 21:22:34 10° NW 21:25:07 15° N 21:27:43 10° NNE visible
24 Apr - 23:05:33 10° NNW 23:08:10 15° N 23:10:48 10° NE visible
25 Apr - 00:46:30 10° NW 00:50:43 38° NNE 00:55:00 10° E night (unlit)
25 Apr - 02:28:04 10° WNW 02:32:17 37° SW 02:36:33 10° SSE night (unlit)
25 Apr - 18:13:21 10° SW 18:17:45 77° SE 18:22:11 10° NE daylight
25 Apr - 19:56:06 10° WNW 19:59:41 24° NNW 20:03:17 10° NNE visible
25 Apr - 21:40:22 10° NNW 21:42:31 13° N 21:44:41 10° NNE visible
25 Apr - 23:22:12 10° NNW 23:25:28 19° NNE 23:28:47 10° ENE visible
26 Apr - 01:03:08 10° NW 01:07:39 70° NE 01:12:14 10° ESE night (unlit)
26 Apr - 02:45:48 10° W 02:48:51 18° SW 02:51:55 10° S night (unlit)
26 Apr - 16:49:50 10° S 16:53:17 23° SE 16:56:46 10° E daylight
26 Apr - 18:30:17 10° WSW 18:34:36 53° NNW 18:38:56 10° NE daylight
26 Apr - 20:14:01 10° NW 20:16:55 17° NNW 20:19:51 10° NNE visible
26 Apr - 21:57:39 10° NNW 21:59:56 14° N 22:02:14 10° NE visible
26 Apr - 23:38:44 10° NW 23:42:39 28° NNE 23:46:36 10° E visible
27 Apr - 01:19:59 10° WNW 01:24:26 58° SW 01:28:56 10° SE night (unlit)
27 Apr - 17:05:39 10° SSW 17:09:54 49° SE 17:14:10 10° ENE daylight
27 Apr - 18:47:41 10° W 18:51:35 30° NNW 18:55:31 10° NE daylight
27 Apr - 20:31:58 10° NW 20:34:17 14° N 20:36:35 10° NNE visible
27 Apr - 22:14:26 10° NNW 22:17:17 16° NNE 22:20:10 10° NE visible
27 Apr - 23:55:19 10° NW 23:59:41 48° NNE 00:04:06 10° ESE visible
28 Apr - 01:37:15 10° WNW 01:41:04 27° SW 01:44:55 10° S night (unlit)
28 Apr - 15:43:06 10° SSE 15:45:33 15° SE 15:47:59 10° E daylight
28 Apr - 17:22:15 10° SW 17:26:39 78° NW 17:31:04 10° NE daylight
28 Apr - 19:05:28 10° WNW 19:08:45 20° NNW 19:12:03 10° NNE daylight
28 Apr - 20:49:34 10° NNW 20:51:41 13° N 20:53:47 10° NNE visible
28 Apr - 22:31:00 10° NNW 22:34:33 22° NNE 22:38:07 10° ENE visible
29 Apr - 00:12:02 10° NW 00:16:32 87° SW 00:21:06 10° SE visible
29 Apr - 01:55:45 10° WSW 01:57:35 12° SW 01:59:25 10° SSW night (unlit)
29 Apr - 15:58:09 10° SSW 16:02:05 32° SE 16:06:01 10° ENE daylight
29 Apr - 17:39:24 10° WSW 17:43:33 40° NNW 17:47:44 10° NE daylight
29 Apr - 19:23:27 10° NW 19:26:02 15° NNW 19:28:38 10° NNE daylight
29 Apr - 21:06:36 10° NNW 21:09:05 14° N 21:11:33 10° NE visible
29 Apr - 22:47:32 10° NW 22:51:39 35° NNE 22:55:49 10° E visible
30 Apr - 00:29:01 10° WNW 00:33:15 41° SW 00:37:32 10° SSE night (unlit)
30 Apr - 16:14:22 10° SW 16:18:45 70° SE 16:23:09 10° ENE daylight
30 Apr - 17:56:58 10° W 18:00:37 25° NNW 18:04:17 10° NNE daylight
30 Apr - 19:41:19 10° NNW 19:43:25 13° N 19:45:32 10° NNE daylight
30 Apr - 21:23:15 10° NNW 21:26:23 18° NNE 21:29:32 10° ENE visible
30 Apr - 23:04:09 10° NW 23:08:36 64° NE 23:13:06 10° ESE visible
01 May - 00:46:38 10° W 00:49:50 19° SW 00:53:04 10° S night (unlit)
01 May - 14:51:00 10° S 14:54:19 21° SE 14:57:37 10° E daylight
01 May - 16:31:13 10° WSW 16:35:34 57° NW 16:39:56 10° NE daylight
01 May - 18:14:52 10° WNW 18:17:50 17° NNW 18:20:49 10° NNE daylight
01 May - 19:58:40 10° NNW 20:00:49 13° N 20:03:00 10° NE visible
01 May - 21:39:47 10° NNW 21:43:35 27° NNE 21:47:24 10° E visible
01 May - 23:20:57 10° WNW 23:25:24 63° SW 23:29:53 10° SE visible
02 May - 15:06:41 10° SSW 15:10:54 45° SE 15:15:07 10° ENE daylight
02 May - 16:48:34 10° W 16:52:32 32° NNW 16:56:30 10° NE daylight
02 May - 18:32:51 10° NW 18:35:11 14° N 18:37:30 10° NNE daylight
02 May - 20:15:29 10° NNW 20:18:11 16° NNE 20:20:55 10° NE visible
02 May - 21:56:21 10° NW 22:00:37 44° NNE 22:04:56 10° ESE visible
02 May - 23:38:10 10° WNW 23:42:03 29° SW 23:45:57 10° SSE visible
